Regional Weather Roundup
Issued by NWS

Home | Current Version | Previous Version | Graphics & Text | Print | Product List | Glossary On
Versions: 1 2 3 4 5 6 7 8 9 10 11 12 13 14 15 16 17 18 19 20 21 22 23 24 25 26 27 28 29 30 31 32 33 34 35 36 37 38 39 40 41 42 43 44 45 46 47 48 49 50
000
ASUS43 KMKX 041511
RWRWI

WISCONSIN REGIONAL WEATHER ROUNDUP
NATIONAL WEATHER SERVICE MILWAUKEE/SULLIVAN WI
1000 AM CDT TUE AUG 04 2015

NOTE: "FAIR" INDICATES FEW OR NO CLOUDS BELOW 12,000 FEET WITH NO
SIGNIFICANT WEATHER AND/OR OBSTRUCTIONS TO VISIBILITY.

WIZ001-002-006>008-014>016-023>028-041600-
NORTHWEST WISCONSIN

CITY           SKY/WX    TMP DP  RH WIND       PRES   REMARKS
SUPERIOR ARPT  SUNNY     68  55  62 NW6       29.97S
ASHLAND        MOSUNNY   67  54  63 CALM      29.97R
HAYWARD        SUNNY     67  51  56 VRB5      29.99S
SIREN          SUNNY     67  54  62 W6        30.01S
CUMBERLAND     SUNNY     66  54  63 NW5       30.01F
RICE LAKE      SUNNY     68  55  62 NW5       30.02F
CHETEK         SUNNY     69  56  64 N5        30.00F
LADYSMITH      SUNNY     68  55  62 W9        30.02R
EAU CLAIRE     SUNNY     70  55  59 W12       30.00S
MENOMONIE      SUNNY     72  55  55 SW10      30.01S
NEW RICHMOND   SUNNY     70  53  56 W7        30.02S
OSCEOLA        SUNNY     68  57  66 NW3       30.04S
$$

WIZ003>005-009-010-017-018-041600-
NORTH CENTRAL WISCONSIN

CITY           SKY/WX    TMP DP  RH WIND       PRES   REMARKS
MANITOWISH WTR PTSUNNY   62  54  74 NW9       29.98R
ARBOR VITAE    PTSUNNY   64  55  72 NW9       29.97R
WOODRUFF       PTSUNNY   64  55  72 NW9       29.97R
RHINELANDER    SUNNY     66  51  58 NW10      29.98R
EAGLE RIVER    PTSUNNY   61  54  76 NW7       29.96R
LAND O LAKES   MOSUNNY   63  53  71 NW9       29.96S
PHILLIPS       MOSUNNY   65  54  68 W7        29.99R
TOMAHAWK       MOSUNNY   65  52  62 NW9G18    29.98S
MEDFORD        SUNNY     66  53  62 W8G16     30.00S
MERRILL        NOT AVBL
$$

WIZ029-030-035-036-043>047-041600-
CENTRAL WISCONSIN

CITY           SKY/WX    TMP DP  RH WIND       PRES   REMARKS
WAUSAU         SUNNY     70  52  52 NW12      29.97R
MOSINEE        SUNNY     68  54  60 NW12      29.99S
MARSHFIELD     SUNNY     71  51  49 NW12      29.99F
STEVENS POINT  SUNNY     67  52  59 W8        29.98F
WAUPACA        SUNNY     72  52  48 NW14      29.96F
WAUTOMA        SUNNY     73  50  44 NW12      29.98F
WISC RAPIDS    SUNNY     72  50  45 NW10      29.99F
CAMP DOUGLAS   MOSUNNY   72  55  56 NW7       30.00R
$$

WIZ011>013-019>022-031-037>040-048>050-041600-
NORTHEAST WISCONSIN

CITY           SKY/WX    TMP DP  RH WIND       PRES   REMARKS
ANTIGO         SUNNY     67  52  58 NW9G23    29.97S
SHAWANO        MOSUNNY   71  55  56 W6        29.95S
OCONTO         PTSUNNY   67  57  70 W10       29.93S
STURGEON BAY   CLOUDY    63  55  77 W5        29.96R
GREEN BAY      SUNNY     70  57  63 W9        29.95R
MANITOWOC      MOSUNNY   70  56  61 MISG      29.94S
APPLETON       MOSUNNY   68  52  56 W12       29.96S
CLINTONVILLE   SUNNY     70  52  52 NW9       29.95S
OSHKOSH        SUNNY     70  56  61 NW10      29.95S
$$

WIZ032>034-041-042-053>061-041600-
SOUTHWEST WISCONSIN

CITY           SKY/WX    TMP DP  RH WIND       PRES   REMARKS
LA CROSSE      SUNNY     73  54  51 NW3       30.00F
SPARTA         SUNNY     70  52  52 SW3       30.01F
VIROQUA        SUNNY     70  54  57 N3        30.03S
BOSCOBEL       MOSUNNY   73  57  57 VRB3      30.02R
PRAIRIE DU CHI MOSUNNY   70  53  53 W5        30.02S
PLATTEVILLE    MOSUNNY   71  58  64 NW6       30.02S
$$

WIZ056-057-062-063-064-067-068-041600-
SOUTH CENTRAL WISCONSIN

CITY           SKY/WX    TMP DP  RH WIND       PRES   REMARKS
REEDSBURG      SUNNY     72  53  51 N7        30.00R
BARABOO/DELLS  SUNNY     71  48  43 N10       30.00R
LONE ROCK      MOSUNNY   71  55  56 NW7       30.01S
MINERAL POINT  MOSUNNY   72  54  53 N3        30.02S
MADISON        PTSUNNY   72  56  57 NW7       29.99R
MIDDLETON      SUNNY     73  53  48 NW8       30.00S
WATERTOWN      PTSUNNY   70  58  67 NW6       29.98R
MONROE         SUNNY     70  55  60 NW6       30.00S
JANESVILLE     SUNNY     73  55  53 NW8       29.98R
$$

WIZ051-052-058>065-066-070>072-041600-
SOUTHEAST WISCONSIN

CITY           SKY/WX    TMP DP  RH WIND       PRES   REMARKS
MILWAUKEE      MOSUNNY   76  52  43 W15       29.95S
WAUKESHA       SUNNY     70  54  56 W9        29.98R
MILWAUKEE/TIMM SUNNY     73  52  46 W9        29.96R
RACINE         SUNNY     75  54  47 W8        29.97S
BURLINGTON     SUNNY     74  52  46 W12       29.97S
KENOSHA        SUNNY     74  59  59 W10       29.97S
FOND DU LAC    SUNNY     71  58  63 NW10      29.96S
SHEBOYGAN      SUNNY     71  59  65 NW10      29.94S
WEST BEND      SUNNY     70  55  60 W10       29.96S
JUNEAU         SUNNY     69  55  61 W7        29.98S
$$

LSZ147-162-041600-
LAKE SUPERIOR

STATION/POSITION TIME  TEMP    WIND        PRES    WAVE
                       AIR SEA DIR/SP/G            HT/PER
                 (UTC) (F)     (DEG/KT/KT) (MB)    (FT/S)
W MID LAKE BUOY  1450   56 56  340/  6/  8 1013.9R   1
DEVILS ISLAND    1500   58     250/  8/ 11 1015.0R
PORT WING        1440   60     280/  8/  9 1015.2R
SAXON HARBOR     1440   64     320/  7     1014.2R
$$

LMZ867-665-643>646-041600-
LAKE MICHIGAN

STATION/POSITION TIME  TEMP    WIND        PRES    WAVE
                       AIR SEA DIR/SP/G            HT/PER
                 (UTC) (F)     (DEG/KT/KT) (MB)    (FT/S)
CHAMBERS ISLAND  1400   64     300/  4/  7 1013.2R
S GREEN BAY BUOY 1500   65 71  260/  6/  6 1015.1R
N MID LAKE BUOY  1450   62 68  320/  8/  8 1012.9R   1/ 3
NORTHPORT PIER   1400   64     320/  9/ 10 1012.5R
SISTER BAY       1418   66     350/ 11/ 12   N/A
ALGOMA LAKESHORE 1312          300/  9/ 11   N/A
KEWAUNEE LAKESHO 1400   66     320/  3/  6 1013.0R
SHEBOYGAN LAKESH 1500   66      20/ 10/ 10 1013.9S
PORT WASHINGTON  1400   72     290/  7/ 10 1014.2S
ATWATER BUOY     1500   65 52  290/  6/  8 1015.4R
MILWAUKEE LAKESH 1400   72     260/  9/ 12   N/A
KENOSHA   LAKESH 1500   74     280/ 13/ 18 1014.2S
$$

TC  - TEMPERATURE IN CELSIUS
VSB - VISIBILITY IN STATUTE MILES
WCI - WIND CHILL INDEX
HX  - HEAT INDEX




USA.gov is the U.S. government's official web portal to all federal, state and local government web resources and services.